Content
SEND FEEDBACK

Daily
Averages
Monthly
Summary
United States of America

ST. LOUIS, MISSOURI


Home > North America > United States > Missouri
Elevation: 163 meters     Latitude: 38 45N     Longitude: 090 22W

WEATHER
 
SELECT A DAY
Number of Records: 196,649;   Date Range: 1/1/95 - 9/18/14
 
SHARE

PRINT THIS DATA

[ ← Previous Day ]
WEATHER ALMANAC - 31 MARCH, 2013
[ Next Day → ]
[ °F ]   °C
Weather ElementAverageHighLow
Temperature12 °C20 °C (2:54 pm)8 °C (12:16 am)
Dewpoint5.8 °C9.4 °C (9:54 am)0.6 °C (3:54 pm)
Humidity71.8 %100 % (12:16 am)27 % (4:54 pm)
Barometer1012.2 hPa1014.2 hPa (11:54 pm)1010.5 hPa (4:54 pm)
Wind Speed8.5 km/h22.2 km/h (3:54 pm)
Wind Gust38.9 km/h (3:54 pm)
Weather ElementAverage
Visibility10.1 km
Wind DirectionS (182.9 °)

Weather ElementTotal
Precipitation0.25 mm
Heating Degree Days4.3 (Base 18.3)
Growing Degree Days4 (Base 10)
Averaged from 34 records on 31 March, 2013
WEATHER CONDITIONS BREAKOUT
WIND DIRECTION BREAKOUT
WEATHER BY HOUR - 31 MARCH, 2013
[ °F ]   °C
Local TimeTemperatureDewpointHumidityBarometerVisibilityWind DirectionWind SpeedGust SpeedPrecipitationEventsConditions
12:16 AM8 °C8 °C100 %1012.9 hPa3.2 kmCalmOvercast
12:26 AM8 °C7 °C93 %1012.9 hPa2.4 kmCalmOvercast
12:41 AM8 °C7 °C93 %1012.9 hPa2.4 kmCalmOvercast
12:51 AM8 °C7 °C93 %1012.9 hPa1.6 kmCalmOvercast
12:54 AM8.3 °C7.2 °C93 %1012.9 hPa1.6 kmCalmOvercast
1:43 AM9 °C8 °C93 %1012.5 hPa4.8 kmCalmOvercast
1:54 AM8.9 °C7.8 °C93 %1012.5 hPa4 kmCalmOvercast
2:09 AM9 °C8 °C93 %1012.2 hPa6.4 kmSW (220°)5.6 km/hOvercast
2:49 AM9 °C8 °C93 %1012.2 hPa8 kmWSW (250°)7.4 km/hOvercast
2:54 AM8.9 °C7.8 °C93 %1012.5 hPa8 kmWSW (240°)9.3 km/hOvercast
3:31 AM9 °C8 °C93 %1011.9 hPa9.7 kmWSW (250°)9.3 km/hOvercast
3:54 AM9.4 °C8.3 °C93 %1011.9 hPa9.7 kmWSW (240°)9.3 km/hOvercast
4:39 AM9 °C8 °C93 %1012.2 hPa8 kmWNW (290°)9.3 km/hOvercast
4:54 AM9.4 °C7.8 °C90 %1012.2 hPa6.4 kmWNW (290°)9.3 km/hOvercast
5:41 AM9 °C7 °C87 %1011.9 hPa8 kmCalmMostly Cloudy
5:54 AM8.3 °C7.2 °C93 %1012.5 hPa8 kmWest (270°)5.6 km/hMostly Cloudy
6:54 AM8.9 °C7.8 °C93 %1012.9 hPa8 kmWest (260°)5.6 km/hOvercast
7:54 AM8.9 °C7.2 °C89 %1013.2 hPa4.8 kmWNW (290°)7.4 km/hOvercast
8:54 AM10 °C8.3 °C89 %1013.2 hPa4.8 kmCalmScattered Clouds
9:54 AM12.2 °C9.4 °C83 %1012.9 hPa9.7 kmVariable5.6 km/hHaze
10:54 AM15.6 °C8.9 °C64 %1012.2 hPa16.1 kmNNE (20°)5.6 km/hScattered Clouds
11:54 AM17.8 °C7.2 °C50 %1011.5 hPa16.1 kmNW (320°)16.7 km/hScattered Clouds
12:54 PM18.3 °C6.1 °C45 %1011.9 hPa16.1 kmNNW (330°)11.1 km/h0.25 mmScattered Clouds
1:54 PM19.4 °C2.8 °C33 %1011.5 hPa16.1 kmWNW (290°)20.4 km/hClear
2:54 PM20 °C1.1 °C28 %1011.2 hPa16.1 kmNW (320°)20.4 km/h35.2 km/hScattered Clouds
3:54 PM19.4 °C0.6 °C28 %1010.8 hPa16.1 kmNW (310°)22.2 km/h38.9 km/hMostly Cloudy
4:54 PM20 °C0.6 °C27 %1010.5 hPa16.1 kmWest (280°)20.4 km/hScattered Clouds
5:54 PM18.3 °C1.7 °C33 %1011.2 hPa16.1 kmWNW (290°)22.2 km/h35.2 km/hMostly Cloudy
6:54 PM16.7 °C2.2 °C38 %1011.2 hPa16.1 kmWNW (300°)18.5 km/hMostly Cloudy
7:54 PM16.1 °C4.4 °C46 %1011.9 hPa16.1 kmNW (310°)14.8 km/hOvercast
8:54 PM15 °C3.3 °C46 %1012.9 hPa16.1 kmNW (310°)14.8 km/hOvercast
9:54 PM12.8 °C2.8 °C51 %1013.5 hPa16.1 kmWest (280°)9.3 km/hPartly Cloudy
10:54 PM9.4 °C1.7 °C59 %1013.9 hPa16.1 kmWest (260°)7.4 km/hClear
11:54 PM9.4 °C0.6 °C54 %1014.2 hPa16.1 kmCalmClear
Hourly data recorded from KSUS, located 0 kilometers away from St. Louis, Missouri







STORIES FROM OUR PARTNERS